Date String (YYYY-MM-DD hh:mm:ss) UTC,Instrument flags,Ambient pressure (hPa),Sample flow (lpm),Bypass flow (lpm),Sample temperature (°C),Ambient temperature (°C),ASC tube jacket temperature (°C),LED temperature (°C),Box temperature (°C),Sample RH (%),Span deviation,Mass concentration (μg/m³),Mass concentration (μg/m³),Mass concentration (μg/m³)
DateTimeUTC,F1_M11,P_M11,Q1_M11,Q2_M11,T1_M11,T2_M11,T3_M11,T4_M11,T5_M11,U1_M11,ZSPAN_M11,X0_M11,X2_M11,X1_M11
2023-01-13 22:00:00,,0827.6,4.99,0.00,26.9,25.8,00.0,35.6,28.7,10.8,0000.0,0007.13,0003.75,0003.54
2023-01-13 22:01:00,,0827.6,5.00,0.00,26.9,25.7,00.0,35.6,28.7,10.8,0000.0,0007.29,0003.81,0003.59
2023-01-13 22:02:00,,0827.6,4.99,0.00,26.9,25.7,00.0,35.6,28.8,10.8,0000.0,0007.39,0003.87,0003.65
2023-01-13 22:03:00,,0827.6,5.00,0.00,26.9,25.7,00.0,35.6,28.8,11.0,0000.0,0007.24,0003.94,0003.71
2023-01-13 22:04:00,,0827.6,5.01,0.00,26.9,25.7,00.0,35.6,28.7,10.8,0000.0,0007.06,0004.00,0003.77
2023-01-13 22:05:00,,0827.7,5.01,0.00,26.9,25.7,00.0,35.6,28.7,10.7,0000.0,0007.33,0004.05,0003.82
2023-01-13 22:06:00,,0827.7,5.00,0.00,26.9,25.7,00.0,35.7,28.7,10.7,0000.0,0007.41,0004.12,0003.88
2023-01-13 22:07:00,,0827.7,5.00,0.00,26.9,25.7,00.0,35.7,28.7,10.6,0000.0,0006.90,0004.17,0003.91
2023-01-13 22:08:00,,0827.7,5.00,0.00,26.9,25.7,00.0,35.7,28.7,10.6,0000.0,0006.57,0004.19,0003.94
2023-01-13 22:09:00,,0827.7,5.00,0.00,26.9,25.7,00.0,35.7,28.7,10.5,0000.0,0006.67,0004.23,0003.97
2023-01-13 22:10:00,,0827.7,5.01,0.00,26.9,25.7,00.0,35.7,28.7,11.0,0000.0,0006.77,0004.24,0003.99
2023-01-13 22:11:00,,0827.7,5.00,0.00,26.9,25.7,00.0,35.7,28.7,10.9,0000.0,0007.03,0004.30,0004.01
2023-01-13 22:12:00,,0827.7,4.99,0.00,26.9,25.7,00.0,35.7,28.7,10.8,0000.0,0007.10,0004.31,0004.02
2023-01-13 22:13:00,,0827.7,5.00,0.00,26.9,25.7,00.0,35.7,28.7,10.9,0000.0,0007.07,0004.28,0004.01
2023-01-13 22:14:00,,0827.7,5.00,0.00,26.9,25.7,00.0,35.7,28.7,11.0,0000.0,0007.20,0004.28,0003.99
2023-01-13 22:15:00,,0827.7,5.00,0.00,26.9,25.6,00.0,35.7,28.7,10.9,0000.0,0007.36,0004.27,0003.96
2023-01-13 22:16:00,,0827.7,5.01,0.00,26.9,25.6,00.0,35.7,28.7,11.0,0000.0,0007.03,0004.25,0003.96
2023-01-13 22:17:00,,0827.7,5.01,0.00,26.9,25.6,00.0,35.7,28.7,11.1,0000.0,0007.62,0004.23,0003.93
2023-01-13 22:18:00,,0827.7,5.01,0.00,26.9,25.6,00.0,35.7,28.7,11.2,0000.0,0007.79,0004.20,0003.91
2023-01-13 22:19:00,,0827.7,4.98,0.00,26.9,25.6,00.0,35.7,28.7,11.3,0000.0,0007.77,0004.18,0003.89
2023-01-13 22:20:00,,0827.7,5.00,0.00,26.9,25.6,00.0,35.7,28.7,11.2,0000.0,0007.74,0004.17,0003.88
2023-01-13 22:21:00,,0827.7,5.00,0.00,26.9,25.6,00.0,35.7,28.7,11.2,0000.0,0007.70,0004.19,0003.92
2023-01-13 22:22:00,,0827.7,5.00,0.00,26.9,25.6,00.0,35.7,28.7,11.3,0000.0,0007.64,0004.21,0003.95
2023-01-13 22:23:00,,0827.7,5.00,0.00,26.9,25.6,00.0,35.7,28.7,11.6,0000.0,0007.60,0004.21,0003.97
2023-01-13 22:24:00,,0827.7,5.00,0.00,26.9,25.6,00.0,35.7,28.7,11.9,0000.0,0007.66,0004.20,0003.96
2023-01-13 22:25:00,,0827.8,4.99,0.00,26.9,25.5,00.0,35.7,28.7,11.9,0000.0,0007.65,0004.20,0003.96
2023-01-13 22:26:00,,0827.7,5.00,0.00,26.9,25.4,00.0,35.7,28.6,12.1,0000.0,0007.70,0004.24,0003.98
2023-01-13 22:27:00,,0827.7,5.00,0.00,26.8,25.3,00.0,35.7,28.6,12.1,0000.0,0007.79,0004.30,0004.02
2023-01-13 22:28:00,,0827.6,5.00,0.00,26.8,25.2,00.0,35.7,28.5,11.8,0000.0,0007.34,0004.34,0004.07
2023-01-13 22:29:00,,0827.6,5.00,0.00,26.8,25.2,00.0,35.7,28.5,11.6,0000.0,0007.00,0004.36,0004.11
2023-01-13 22:30:00,,0827.5,5.00,0.00,26.8,25.2,00.0,35.7,28.5,11.6,0000.0,0007.26,0004.39,0004.13
2023-01-13 22:31:00,,0827.5,5.01,0.00,26.8,25.2,00.0,35.7,28.5,11.6,0000.0,0007.51,0004.39,0004.14
2023-01-13 22:32:00,,0827.6,4.99,0.00,26.7,25.2,00.0,35.7,28.5,11.2,0000.0,0007.47,0004.34,0004.10
2023-01-13 22:33:00,,0827.5,5.00,0.00,26.7,25.2,00.0,35.7,28.5,11.5,0000.0,0007.39,0004.27,0004.05
2023-01-13 22:34:00,,0827.5,4.99,0.00,26.7,25.2,00.0,35.6,28.5,10.9,0000.0,0007.39,0004.24,0004.02
2023-01-13 22:35:00,,0827.5,4.99,0.00,26.7,25.3,00.0,35.6,28.5,10.7,0000.0,0007.36,0004.28,0004.03
2023-01-13 22:36:00,,0827.5,5.00,0.00,26.7,25.3,00.0,35.6,28.6,10.7,0000.0,0007.37,0004.29,0004.05
2023-01-13 22:37:00,,0827.5,5.00,0.00,26.8,25.4,00.0,35.6,28.5,10.6,0000.0,0007.34,0004.26,0004.04
2023-01-13 22:38:00,,0827.6,5.00,0.00,26.8,25.4,00.0,35.6,28.5,10.7,0000.0,0007.22,0004.21,0004.03
2023-01-13 22:39:00,,0827.7,5.00,0.00,26.8,25.5,00.0,35.6,28.6,10.8,0000.0,0007.15,0004.19,0004.01
2023-01-13 22:40:00,,0827.6,5.00,0.00,26.8,25.5,00.0,35.6,28.6,10.9,0000.0,0007.31,0004.21,0004.01
2023-01-13 22:41:00,,0827.6,5.00,0.00,26.8,25.5,00.0,35.6,28.6,11.8,0000.0,0007.20,0004.21,0004.01
2023-01-13 22:42:00,,0827.6,5.01,0.00,26.8,25.6,00.0,35.6,28.6,13.4,0000.0,0007.25,0004.19,0003.97
2023-01-13 22:43:00,,0827.6,4.99,0.00,26.8,25.6,00.0,35.6,28.7,12.7,0000.0,0007.81,0004.16,0003.94
2023-01-13 22:44:00,,0827.6,5.01,0.00,26.8,25.6,00.0,35.6,28.7,12.4,0000.0,0008.21,0004.17,0003.93
2023-01-13 22:45:00,,0827.5,5.01,0.00,26.9,25.6,00.0,35.6,28.7,12.2,0000.0,0008.26,0004.18,0003.93
2023-01-13 22:46:00,,0827.6,5.01,0.00,26.9,25.6,00.0,35.6,28.7,11.8,0000.0,0008.22,0004.17,0003.94
2023-01-13 22:47:00,,0827.6,5.01,0.00,26.9,25.6,00.0,35.7,28.7,11.5,0000.0,0008.22,0004.20,0003.97
2023-01-13 22:48:00,,0827.6,4.99,0.00,26.8,25.4,00.0,35.7,28.6,12.2,0000.0,0008.18,0004.21,0003.96
2023-01-13 22:49:00,,0827.7,5.00,0.00,26.8,25.3,00.0,35.7,28.6,12.9,0000.0,0008.11,0004.19,0003.93
2023-01-13 22:50:00,,0827.6,5.00,0.00,26.8,25.3,00.0,35.7,28.6,13.4,0000.0,0008.13,0004.17,0003.88
2023-01-13 22:51:00,,0827.5,5.00,0.00,26.8,25.4,00.0,35.7,28.6,13.1,0000.0,0008.54,0004.15,0003.83
2023-01-13 22:52:00,,0827.5,4.99,0.00,26.8,25.5,00.0,35.7,28.6,13.0,0000.0,0008.68,0004.14,0003.82
2023-01-13 22:53:00,,0827.5,5.00,0.00,26.8,25.5,00.0,35.7,28.6,12.8,0000.0,0008.40,0004.16,0003.85
2023-01-13 22:54:00,,0827.6,5.01,0.00,26.9,25.5,00.0,35.7,28.7,12.7,0000.0,0008.10,0004.21,0003.89
2023-01-13 22:55:00,,0827.5,5.01,0.00,26.9,25.6,00.0,35.7,28.7,12.6,0000.0,0007.96,0004.25,0003.92
2023-01-13 22:56:00,,0827.5,4.99,0.00,26.9,25.6,00.0,35.7,28.7,12.4,0000.0,0007.95,0004.26,0003.93
2023-01-13 22:57:00,,0827.5,4.99,0.00,26.9,25.6,00.0,35.7,28.7,12.4,0000.0,0008.02,0004.27,0003.92
2023-01-13 22:58:00,,0827.5,4.99,0.00,26.9,25.6,00.0,35.7,28.7,12.5,0000.0,0008.03,0004.26,0003.90
2023-01-13 22:59:00,,0827.5,4.99,0.00,26.9,25.6,00.0,35.7,28.7,12.6,0000.0,0008.67,0004.26,0003.89
